Precipitable_Water
0.52 0.51 0.50 0.49 0.48 0.47 0.46 0.45 0.44 0.44 0.44 0.44 0.43 0.43 0.42 0.41 0.41 0.41 0.40 0.40 0.39 0.38 0.38 0.36 0.34 0.33 0.33 0.33 0.37 0.38 0.40 0.30 0.27 0.25 0.28 0.33 0.39 0.46 0.47 0.50 0.49 0.48 0.48 0.43 0.43 0.40 0.33 0.32 0.32 0.37 0.35 0.33 0.32 0.31 0.35 0.36 0.39 0.34 0.21 0.17 0.13 0.15 0.14 0.17 0.17 0.20 0.24 0.21 0.23 0.24 0.25 0.23 0.21 0.23 0.23 0.24 0.21 0.21 0.21 0.22 0.25 0.28 0.28 0.29 0.32 0.34 0.36 0.38
0.51 0.51 0.50 0.49 0.48 0.47 0.46 0.45 0.45 0.45 0.44 0.44 0.44 0.44 0.43 0.42 0.42 0.41 0.41 0.41 0.41 0.39 0.39 0.39 0.38 0.36 0.36 0.35 0.37 0.38 0.36 0.26 0.21 0.23 0.20 0.35 0.42 0.47 0.49 0.50 0.51 0.48 0.46 0.38 0.36 0.37 0.32 0.30 0.32 0.34 0.31 0.27 0.40 0.28 0.39 0.31 0.40 0.27 0.21 0.18 0.12 0.16 0.16 0.20 0.19 0.21 0.21 0.20 0.23 0.23 0.24 0.23 0.21 0.22 0.23 0.18 0.17 0.19 0.18 0.19 0.21 0.22 0.25 0.29 0.32 0.34 0.34 0.36
0.51 0.51 0.50 0.49 0.48 0.47 0.47 0.46 0.46 0.45 0.45 0.44 0.44 0.44 0.44 0.43 0.43 0.43 0.43 0.43 0.42 0.43 0.42 0.41 0.40 0.39 0.39 0.39 0.40 0.41 0.34 0.25 0.24 0.16 0.27 0.48 0.48 0.45 0.49 0.50 0.49 0.47 0.41 0.34 0.37 0.37 0.35 0.34 0.34 0.33 0.31 0.27 0.32 0.27 0.33 0.30 0.34 0.32 0.24 0.17 0.16 0.20 0.20 0.22 0.22 0.20 0.22 0.22 0.20 0.21 0.23 0.22 0.22 0.22 0.24 0.19 0.17 0.18 0.16 0.15 0.17 0.18 0.19 0.23 0.28 0.31 0.33 0.34
0.53 0.52 0.50 0.49 0.48 0.48 0.47 0.46 0.46 0.46 0.46 0.46 0.44 0.44 0.44 0.44 0.44 0.45 0.44 0.44 0.44 0.44 0.44 0.43 0.41 0.40 0.40 0.41 0.44 0.43 0.33 0.23 0.12 0.29 0.41 0.48 0.48 0.47 0.48 0.47 0.46 0.47 0.46 0.40 0.41 0.39 0.41 0.39 0.36 0.33 0.29 0.26 0.27 0.32 0.26 0.30 0.24 0.28 0.25 0.18 0.17 0.23 0.21 0.21 0.24 0.24 0.24 0.24 0.22 0.21 0.22 0.20 0.22 0.23 0.22 0.20 0.17 0.15 0.16 0.18 0.17 0.17 0.18 0.21 0.26 0.29 0.31 0.31
0.53 0.53 0.52 0.50 0.49 0.48 0.47 0.47 0.47 0.46 0.46 0.46 0.46 0.45 0.45 0.45 0.44 0.44 0.45 0.45 0.45 0.45 0.46 0.45 0.43 0.41 0.42 0.44 0.43 0.41 0.27 0.11 0.24 0.35 0.41 0.47 0.47 0.44 0.45 0.46 0.47 0.47 0.44 0.40 0.41 0.39 0.37 0.35 0.34 0.32 0.28 0.23 0.26 0.27 0.25 0.29 0.31 0.28 0.21 0.23 0.24 0.25 0.21 0.23 0.25 0.27 0.26 0.26 0.23 0.22 0.19 0.19 0.24 0.23 0.21 0.20 0.16 0.13 0.15 0.18 0.20 0.20 0.20 0.21 0.24 0.27 0.29 0.29
0.55 0.54 0.53 0.51 0.50 0.49 0.49 0.48 0.48 0.47 0.47 0.46 0.47 0.47 0.46 0.45 0.45 0.45 0.44 0.44 0.45 0.45 0.45 0.45 0.45 0.42 0.44 0.45 0.45 0.36 0.23 0.10 0.28 0.33 0.42 0.39 0.40 0.44 0.42 0.45 0.47 0.45 0.42 0.36 0.34 0.33 0.32 0.31 0.30 0.26 0.24 0.23 0.22 0.20 0.24 0.28 0.32 0.19 0.23 0.24 0.26 0.27 0.23 0.24 0.26 0.27 0.28 0.24 0.22 0.20 0.22 0.23 0.21 0.20 0.21 0.21 0.18 0.17 0.20 0.21 0.22 0.22 0.23 0.23 0.25 0.26 0.26 0.26
0.57 0.56 0.55 0.53 0.52 0.51 0.50 0.50 0.49 0.48 0.48 0.47 0.47 0.48 0.47 0.47 0.45 0.45 0.45 0.45 0.45 0.47 0.45 0.46 0.45 0.45 0.45 0.44 0.44 0.35 0.22 0.20 0.25 0.35 0.39 0.41 0.39 0.41 0.43 0.41 0.43 0.41 0.39 0.31 0.31 0.29 0.30 0.29 0.28 0.25 0.24 0.22 0.23 0.22 0.24 0.25 0.30 0.24 0.18 0.23 0.23 0.27 0.24 0.26 0.26 0.28 0.27 0.25 0.22 0.24 0.25 0.21 0.21 0.17 0.22 0.20 0.19 0.20 0.21 0.23 0.23 0.23 0.24 0.24 0.23 0.24 0.24 0.25
0.57 0.58 0.57 0.56 0.54 0.53 0.51 0.51 0.50 0.50 0.48 0.48 0.47 0.48 0.48 0.48 0.47 0.47 0.47 0.47 0.47 0.46 0.48 0.46 0.46 0.47 0.47 0.40 0.29 0.24 0.25 0.20 0.26 0.44 0.42 0.42 0.42 0.41 0.39 0.37 0.34 0.34 0.30 0.26 0.26 0.27 0.29 0.26 0.25 0.27 0.24 0.20 0.22 0.22 0.25 0.24 0.26 0.22 0.20 0.24 0.24 0.27 0.26 0.26 0.27 0.26 0.25 0.24 0.25 0.25 0.21 0.20 0.22 0.21 0.22 0.18 0.19 0.20 0.22 0.23 0.23 0.23 0.23 0.23 0.22 0.23 0.23 0.24
0.61 0.61 0.60 0.59 0.58 0.56 0.55 0.54 0.52 0.52 0.51 0.50 0.50 0.49 0.49 0.49 0.49 0.48 0.49 0.49 0.49 0.49 0.48 0.49 0.48 0.47 0.51 0.39 0.27 0.23 0.20 0.29 0.38 0.43 0.44 0.42 0.40 0.40 0.39 0.28 0.33 0.28 0.25 0.25 0.26 0.27 0.27 0.25 0.26 0.27 0.21 0.22 0.25 0.22 0.24 0.21 0.17 0.23 0.22 0.24 0.24 0.24 0.24 0.24 0.24 0.24 0.24 0.25 0.25 0.23 0.20 0.21 0.23 0.25 0.19 0.18 0.19 0.21 0.23 0.22 0.22 0.23 0.22 0.21 0.21 0.22 0.23 0.23
0.65 0.65 0.64 0.63 0.62 0.61 0.60 0.58 0.56 0.54 0.54 0.53 0.51 0.50 0.49 0.49 0.49 0.49 0.50 0.51 0.51 0.52 0.50 0.51 0.50 0.51 0.39 0.29 0.30 0.20 0.23 0.40 0.45 0.44 0.44 0.43 0.40 0.38 0.36 0.32 0.30 0.26 0.22 0.23 0.25 0.25 0.24 0.25 0.25 0.29 0.28 0.25 0.26 0.22 0.25 0.23 0.19 0.25 0.24 0.24 0.22 0.23 0.23 0.23 0.22 0.21 0.24 0.23 0.24 0.21 0.19 0.19 0.23 0.22 0.15 0.18 0.21 0.23 0.22 0.21 0.22 0.22 0.20 0.21 0.21 0.22 0.23 0.23
0.74 0.71 0.70 0.69 0.67 0.66 0.65 0.63 0.62 0.61 0.59 0.59 0.56 0.55 0.53 0.52 0.51 0.51 0.51 0.51 0.53 0.53 0.53 0.54 0.54 0.45 0.34 0.36 0.25 0.22 0.43 0.41 0.45 0.46 0.44 0.43 0.39 0.35 0.32 0.33 0.33 0.27 0.25 0.24 0.22 0.25 0.26 0.28 0.31 0.31 0.28 0.23 0.25 0.23 0.23 0.23 0.26 0.25 0.24 0.23 0.22 0.23 0.23 0.21 0.22 0.21 0.23 0.21 0.23 0.21 0.19 0.20 0.23 0.22 0.16 0.17 0.21 0.24 0.22 0.21 0.21 0.21 0.20 0.21 0.21 0.22 0.23 0.24
0.84 0.81 0.80 0.79 0.76 0.73 0.72 0.69 0.67 0.66 0.65 0.63 0.62 0.60 0.60 0.59 0.58 0.57 0.56 0.55 0.54 0.53 0.55 0.57 0.56 0.50 0.41 0.34 0.28 0.25 0.42 0.43 0.45 0.45 0.44 0.42 0.37 0.37 0.37 0.37 0.35 0.31 0.27 0.23 0.24 0.26 0.27 0.28 0.30 0.27 0.21 0.28 0.20 0.24 0.23 0.27 0.25 0.25 0.24 0.19 0.18 0.21 0.19 0.18 0.18 0.20 0.21 0.19 0.21 0.22 0.20 0.17 0.19 0.16 0.17 0.20 0.22 0.24 0.23 0.22 0.21 0.21 0.20 0.20 0.21 0.21 0.22 0.22
0.88 0.87 0.86 0.85 0.81 0.79 0.75 0.72 0.70 0.68 0.67 0.67 0.65 0.64 0.63 0.63 0.62 0.63 0.63 0.62 0.61 0.60 0.60 0.62 0.56 0.50 0.38 0.27 0.29 0.40 0.45 0.47 0.45 0.44 0.43 0.44 0.41 0.44 0.42 0.41 0.39 0.38 0.33 0.28 0.26 0.31 0.33 0.32 0.30 0.26 0.29 0.27 0.24 0.20 0.26 0.28 0.26 0.25 0.24 0.21 0.18 0.17 0.16 0.16 0.19 0.20 0.19 0.19 0.22 0.22 0.14 0.13 0.15 0.18 0.19 0.22 0.23 0.24 0.23 0.22 0.21 0.21 0.21 0.21 0.21 0.21 0.22 0.22
0.96 0.93 0.92 0.89 0.86 0.83 0.80 0.75 0.72 0.71 0.69 0.69 0.69 0.67 0.66 0.65 0.65 0.65 0.66 0.64 0.65 0.64 0.66 0.64 0.62 0.49 0.38 0.30 0.37 0.46 0.49 0.49 0.48 0.43 0.41 0.44 0.40 0.39 0.43 0.44 0.43 0.42 0.41 0.35 0.35 0.38 0.36 0.36 0.33 0.29 0.33 0.26 0.23 0.31 0.26 0.25 0.26 0.20 0.22 0.23 0.17 0.16 0.13 0.15 0.18 0.19 0.17 0.21 0.21 0.22 0.14 0.14 0.15 0.17 0.20 0.22 0.25 0.23 0.21 0.21 0.21 0.21 0.20 0.20 0.21 0.21 0.21 0.22
1.05 1.03 1.00 0.97 0.94 0.90 0.85 0.80 0.76 0.72 0.70 0.68 0.68 0.67 0.65 0.63 0.64 0.65 0.65 0.64 0.63 0.65 0.63 0.66 0.60 0.46 0.36 0.36 0.49 0.53 0.54 0.52 0.42 0.41 0.46 0.42 0.39 0.37 0.38 0.43 0.41 0.42 0.41 0.39 0.37 0.39 0.40 0.39 0.34 0.28 0.24 0.29 0.29 0.24 0.21 0.22 0.22 0.22 0.18 0.15 0.18 0.15 0.14 0.16 0.19 0.19 0.16 0.18 0.22 0.21 0.15 0.14 0.15 0.15 0.19 0.23 0.24 0.23 0.20 0.20 0.20 0.20 0.20 0.20 0.20 0.20 0.20 0.21
1.03 1.03 1.04 1.04 1.02 1.00 0.97 0.92 0.87 0.81 0.75 0.71 0.67 0.65 0.64 0.65 0.64 0.66 0.66 0.65 0.65 0.63 0.62 0.45 0.48 0.45 0.36 0.33 0.44 0.63 0.54 0.42 0.40 0.47 0.51 0.48 0.43 0.38 0.42 0.41 0.43 0.41 0.41 0.39 0.42 0.40 0.39 0.36 0.30 0.30 0.28 0.28 0.23 0.21 0.20 0.19 0.18 0.21 0.18 0.15 0.15 0.17 0.16 0.16 0.16 0.19 0.20 0.20 0.22 0.19 0.14 0.16 0.15 0.17 0.19 0.23 0.23 0.22 0.20 0.19 0.19 0.20 0.20 0.20 0.20 0.20 0.20 0.21
0.95 0.96 0.97 0.98 0.99 1.00 0.99 0.98 0.96 0.93 0.90 0.84 0.77 0.70 0.68 0.67 0.66 0.66 0.68 0.67 0.64 0.64 0.56 0.41 0.50 0.48 0.29 0.41 0.54 0.43 0.41 0.48 0.56 0.50 0.49 0.51 0.48 0.45 0.44 0.41 0.37 0.38 0.41 0.40 0.40 0.39 0.38 0.32 0.35 0.32 0.32 0.26 0.25 0.25 0.20 0.18 0.17 0.18 0.20 0.17 0.18 0.16 0.16 0.15 0.17 0.18 0.20 0.20 0.17 0.20 0.17 0.16 0.16 0.17 0.19 0.21 0.22 0.21 0.20 0.19 0.19 0.19 0.19 0.21 0.21 0.21 0.20 0.21
0.93 0.92 0.90 0.90 0.90 0.93 0.95 0.95 0.94 0.93 0.91 0.88 0.83 0.81 0.77 0.77 0.76 0.70 0.65 0.65 0.64 0.57 0.59 0.63 0.56 0.40 0.33 0.43 0.33 0.35 0.49 0.47 0.50 0.53 0.53 0.54 0.53 0.49 0.44 0.38 0.39 0.37 0.37 0.34 0.40 0.32 0.36 0.29 0.34 0.25 0.27 0.26 0.26 0.24 0.20 0.16 0.17 0.16 0.17 0.17 0.17 0.19 0.19 0.17 0.16 0.18 0.18 0.19 0.17 0.18 0.18 0.17 0.18 0.19 0.19 0.20 0.22 0.22 0.21 0.20 0.19 0.19 0.19 0.20 0.21 0.21 0.21 0.21
0.96 0.93 0.92 0.90 0.88 0.89 0.90 0.89 0.86 0.86 0.86 0.84 0.80 0.83 0.84 0.85 0.82 0.76 0.65 0.66 0.51 0.41 0.31 0.35 0.34 0.22 0.20 0.29 0.38 0.40 0.42 0.49 0.52 0.49 0.46 0.51 0.54 0.52 0.46 0.44 0.40 0.35 0.31 0.30 0.31 0.32 0.34 0.31 0.32 0.26 0.22 0.24 0.23 0.23 0.20 0.19 0.20 0.19 0.19 0.19 0.20 0.18 0.18 0.18 0.19 0.22 0.21 0.17 0.16 0.17 0.15 0.16 0.18 0.19 0.19 0.20 0.21 0.21 0.21 0.21 0.20 0.19 0.19 0.19 0.20 0.21 0.21 0.21
1.00 0.98 0.96 0.95 0.94 0.94 0.94 0.90 0.85 0.82 0.79 0.70 0.62 0.62 0.64 0.47 0.48 0.46 0.59 0.59 0.50 0.44 0.43 0.42 0.44 0.39 0.39 0.37 0.34 0.40 0.49 0.49 0.36 0.42 0.46 0.52 0.51 0.48 0.46 0.42 0.38 0.36 0.31 0.26 0.30 0.31 0.33 0.25 0.23 0.22 0.23 0.24 0.24 0.24 0.23 0.22 0.23 0.23 0.23 0.23 0.22 0.22 0.21 0.23 0.23 0.23 0.23 0.20 0.18 0.18 0.18 0.17 0.18 0.19 0.20 0.21 0.22 0.21 0.20 0.19 0.19 0.19 0.19 0.19 0.19 0.20 0.21 0.22
1.03 1.02 1.01 1.00 1.00 1.00 1.00 0.99 0.93 0.92 0.87 0.76 0.66 0.54 0.44 0.46 0.41 0.39 0.46 0.48 0.51 0.51 0.49 0.49 0.49 0.46 0.44 0.49 0.53 0.54 0.45 0.45 0.46 0.42 0.43 0.52 0.46 0.43 0.39 0.41 0.36 0.30 0.30 0.30 0.28 0.36 0.33 0.24 0.24 0.25 0.26 0.25 0.25 0.25 0.26 0.25 0.25 0.23 0.23 0.23 0.23 0.24 0.22 0.24 0.24 0.25 0.25 0.21 0.18 0.20 0.19 0.18 0.19 0.20 0.21 0.22 0.22 0.19 0.19 0.18 0.18 0.18 0.19 0.19 0.20 0.20 0.21 0.22
1.05 1.06 1.06 1.04 1.05 1.05 1.05 1.04 1.01 1.00 0.94 0.81 0.69 0.59 0.60 0.58 0.64 0.65 0.54 0.39 0.47 0.50 0.50 0.51 0.54 0.50 0.58 0.58 0.61 0.60 0.55 0.45 0.46 0.50 0.56 0.50 0.42 0.32 0.33 0.34 0.32 0.29 0.34 0.34 0.32 0.29 0.27 0.24 0.26 0.29 0.29 0.28 0.28 0.27 0.27 0.25 0.24 0.25 0.24 0.24 0.24 0.25 0.26 0.26 0.28 0.28 0.27 0.25 0.19 0.21 0.19 0.18 0.20 0.20 0.22 0.21 0.20 0.19 0.20 0.20 0.19 0.19 0.19 0.20 0.20 0.20 0.21 0.22
1.09 1.08 1.09 1.09 1.07 1.09 1.09 1.09 1.08 1.06 0.93 0.78 0.65 0.63 0.59 0.68 0.74 0.71 0.61 0.47 0.40 0.49 0.47 0.46 0.43 0.44 0.44 0.49 0.49 0.53 0.42 0.40 0.41 0.49 0.53 0.53 0.43 0.38 0.35 0.31 0.30 0.30 0.32 0.32 0.28 0.27 0.24 0.28 0.31 0.32 0.32 0.30 0.29 0.29 0.27 0.27 0.27 0.26 0.26 0.25 0.23 0.25 0.25 0.21 0.26 0.27 0.27 0.25 0.22 0.22 0.20 0.20 0.21 0.22 0.22 0.23 0.22 0.21 0.21 0.22 0.21 0.22 0.21 0.21 0.21 0.22 0.22 0.22
1.15 1.14 1.13 1.12 1.13 1.10 1.10 1.09 1.12 1.01 0.89 0.80 0.71 0.67 0.70 0.73 0.72 0.72 0.58 0.42 0.39 0.45 0.49 0.49 0.47 0.45 0.43 0.41 0.48 0.44 0.37 0.37 0.39 0.39 0.56 0.50 0.42 0.45 0.38 0.35 0.31 0.30 0.28 0.30 0.29 0.26 0.24 0.29 0.33 0.33 0.33 0.31 0.28 0.28 0.27 0.26 0.24 0.27 0.27 0.26 0.26 0.26 0.26 0.25 0.23 0.26 0.27 0.27 0.27 0.25 0.22 0.20 0.21 0.20 0.21 0.23 0.25 0.24 0.23 0.23 0.23 0.23 0.24 0.24 0.24 0.25 0.25 0.24
1.22 1.20 1.20 1.18 1.13 1.11 1.04 1.05 0.91 0.86 0.89 0.82 0.77 0.84 0.80 0.78 0.76 0.76 0.57 0.48 0.44 0.44 0.61 0.56 0.56 0.50 0.49 0.59 0.54 0.41 0.41 0.40 0.38 0.44 0.51 0.49 0.44 0.42 0.38 0.40 0.35 0.29 0.30 0.31 0.30 0.27 0.26 0.31 0.33 0.30 0.31 0.31 0.30 0.28 0.29 0.28 0.24 0.25 0.29 0.29 0.27 0.27 0.26 0.26 0.27 0.25 0.23 0.22 0.26 0.25 0.17 0.14 0.19 0.20 0.21 0.24 0.24 0.24 0.25 0.25 0.25 0.24 0.24 0.25 0.24 0.24 0.24 0.25
1.28 1.25 1.24 1.21 1.20 1.16 1.16 0.94 0.91 0.99 0.90 0.81 0.88 0.88 0.83 0.81 0.82 0.78 0.61 0.42 0.32 0.40 0.50 0.40 0.55 0.42 0.59 0.46 0.50 0.45 0.43 0.36 0.47 0.48 0.51 0.50 0.50 0.40 0.38 0.33 0.34 0.26 0.29 0.29 0.27 0.26 0.26 0.31 0.31 0.28 0.28 0.28 0.28 0.27 0.30 0.31 0.25 0.23 0.24 0.31 0.29 0.28 0.28 0.28 0.27 0.26 0.21 0.20 0.25 0.29 0.20 0.14 0.19 0.20 0.22 0.24 0.25 0.25 0.27 0.27 0.26 0.26 0.26 0.25 0.24 0.23 0.23 0.24
1.31 1.27 1.26 1.26 1.26 1.26 1.02 0.89 1.10 1.04 0.84 0.86 1.03 0.97 0.89 0.81 0.91 0.73 0.53 0.37 0.29 0.40 0.38 0.46 0.47 0.47 0.55 0.50 0.47 0.46 0.29 0.31 0.48 0.50 0.48 0.52 0.41 0.48 0.32 0.31 0.34 0.34 0.32 0.31 0.25 0.21 0.28 0.27 0.27 0.27 0.26 0.25 0.25 0.24 0.27 0.29 0.26 0.22 0.28 0.30 0.30 0.29 0.29 0.29 0.29 0.27 0.24 0.29 0.30 0.30 0.27 0.20 0.16 0.19 0.26 0.26 0.25 0.24 0.24 0.25 0.25 0.25 0.25 0.24 0.24 0.24 0.25 0.27
1.36 1.33 1.30 1.30 1.29 1.26 1.07 1.10 1.05 0.96 0.94 1.06 1.12 1.03 0.92 0.90 0.86 0.80 0.48 0.27 0.22 0.44 0.39 0.43 0.49 0.65 0.55 0.54 0.53 0.40 0.38 0.45 0.36 0.45 0.52 0.53 0.49 0.42 0.35 0.29 0.29 0.29 0.31 0.30 0.21 0.29 0.28 0.26 0.27 0.27 0.27 0.26 0.24 0.26 0.28 0.30 0.26 0.25 0.30 0.31 0.30 0.31 0.32 0.33 0.31 0.29 0.29 0.26 0.20 0.25 0.29 0.22 0.17 0.20 0.25 0.24 0.22 0.22 0.22 0.23 0.23 0.24 0.24 0.25 0.26 0.27 0.28 0.29
1.41 1.39 1.35 1.32 1.30 1.29 1.26 1.12 1.08 1.00 1.14 1.21 1.14 1.03 0.94 0.95 0.77 0.59 0.44 0.28 0.39 0.41 0.57 0.40 0.63 0.53 0.53 0.54 0.48 0.47 0.44 0.45 0.36 0.45 0.52 0.54 0.54 0.45 0.35 0.35 0.33 0.31 0.31 0.29 0.23 0.26 0.31 0.33 0.34 0.33 0.31 0.28 0.31 0.32 0.33 0.32 0.27 0.29 0.33 0.35 0.35 0.36 0.36 0.35 0.32 0.30 0.29 0.26 0.18 0.23 0.27 0.21 0.17 0.18 0.21 0.23 0.21 0.20 0.21 0.22 0.23 0.23 0.24 0.25 0.26 0.28 0.29 0.30
1.47 1.45 1.43 1.38 1.32 1.25 1.22 1.24 1.12 1.20 1.23 1.25 1.14 1.05 1.00 0.85 0.66 0.48 0.39 0.26 0.43 0.35 0.45 0.48 0.48 0.44 0.51 0.45 0.44 0.46 0.41 0.42 0.44 0.47 0.49 0.47 0.48 0.49 0.43 0.45 0.37 0.33 0.31 0.33 0.30 0.29 0.32 0.37 0.38 0.33 0.30 0.31 0.32 0.34 0.35 0.34 0.33 0.37 0.37 0.35 0.36 0.37 0.35 0.36 0.34 0.32 0.29 0.21 0.19 0.24 0.26 0.24 0.16 0.17 0.18 0.19 0.20 0.21 0.22 0.23 0.24 0.24 0.24 0.26 0.27 0.28 0.29 0.30
1.46 1.47 1.45 1.44 1.23 1.24 1.21 1.05 1.20 1.31 1.30 1.24 1.18 1.06 0.86 0.70 0.53 0.43 0.31 0.37 0.53 0.48 0.53 0.47 0.44 0.49 0.43 0.39 0.37 0.43 0.43 0.43 0.43 0.46 0.42 0.47 0.45 0.46 0.42 0.39 0.43 0.35 0.33 0.32 0.31 0.31 0.33 0.33 0.31 0.31 0.34 0.33 0.32 0.30 0.35 0.37 0.37 0.37 0.35 0.35 0.35 0.33 0.34 0.31 0.30 0.31 0.23 0.18 0.21 0.24 0.24 0.23 0.15 0.15 0.20 0.22 0.24 0.24 0.24 0.23 0.23 0.24 0.24 0.25 0.27 0.28 0.29 0.29
1.36 1.38 1.42 1.38 1.38 1.39 1.13 1.06 1.29 1.39 1.32 1.28 1.18 1.00 0.76 0.54 0.54 0.38 0.34 0.58 0.40 0.45 0.42 0.42 0.46 0.45 0.44 0.45 0.42 0.42 0.41 0.44 0.46 0.46 0.43 0.42 0.39 0.37 0.37 0.33 0.35 0.29 0.28 0.29 0.28 0.33 0.30 0.31 0.35 0.36 0.40 0.35 0.32 0.30 0.30 0.33 0.35 0.35 0.34 0.34 0.29 0.26 0.25 0.22 0.24 0.20 0.20 0.17 0.21 0.24 0.23 0.20 0.16 0.17 0.21 0.22 0.24 0.24 0.26 0.26 0.25 0.25 0.25 0.26 0.27 0.29 0.28 0.29
1.27 1.27 1.30 1.31 1.33 1.22 1.25 1.31 1.36 1.33 1.32 1.26 1.11 0.90 0.65 0.51 0.36 0.41 0.46 0.52 0.47 0.52 0.48 0.56 0.52 0.52 0.51 0.48 0.46 0.49 0.52 0.46 0.52 0.49 0.47 0.46 0.42 0.40 0.43 0.40 0.41 0.37 0.29 0.31 0.30 0.29 0.29 0.34 0.35 0.36 0.39 0.41 0.39 0.32 0.31 0.31 0.33 0.31 0.28 0.27 0.26 0.22 0.21 0.18 0.19 0.21 0.20 0.20 0.24 0.23 0.25 0.17 0.17 0.20 0.22 0.23 0.25 0.26 0.26 0.26 0.26 0.26 0.27 0.28 0.28 0.29 0.28 0.29
1.27 1.29 1.19 1.24 1.26 1.27 1.28 1.31 1.30 1.28 1.19 1.14 0.96 0.76 0.62 0.45 0.37 0.52 0.48 0.50 0.52 0.63 0.61 0.57 0.59 0.58 0.54 0.47 0.47 0.50 0.44 0.48 0.46 0.45 0.46 0.42 0.41 0.37 0.39 0.43 0.43 0.40 0.39 0.36 0.30 0.30 0.26 0.24 0.29 0.34 0.33 0.42 0.39 0.37 0.36 0.35 0.34 0.33 0.34 0.30 0.27 0.25 0.21 0.18 0.19 0.17 0.17 0.18 0.21 0.25 0.21 0.16 0.15 0.17 0.24 0.25 0.26 0.26 0.26 0.27 0.29 0.30 0.31 0.31 0.31 0.30 0.31 0.31
1.21 1.23 1.23 1.23 1.22 1.24 1.23 1.25 1.25 1.23 1.16 1.01 0.79 0.64 0.47 0.40 0.45 0.45 0.46 0.50 0.55 0.59 0.57 0.63 0.56 0.51 0.47 0.48 0.50 0.53 0.51 0.45 0.51 0.48 0.45 0.42 0.39 0.39 0.38 0.40 0.44 0.44 0.41 0.34 0.35 0.34 0.31 0.30 0.31 0.37 0.38 0.40 0.36 0.39 0.40 0.38 0.35 0.35 0.35 0.36 0.30 0.25 0.30 0.23 0.23 0.22 0.21 0.19 0.19 0.21 0.18 0.21 0.19 0.24 0.26 0.27 0.26 0.26 0.27 0.28 0.29 0.30 0.31 0.32 0.32 0.31 0.31 0.32
1.07 1.08 1.16 1.07 1.05 1.13 1.17 1.15 1.16 1.17 1.04 0.84 0.64 0.51 0.43 0.43 0.43 0.53 0.54 0.65 0.60 0.54 0.56 0.57 0.54 0.46 0.45 0.46 0.51 0.49 0.57 0.47 0.48 0.46 0.44 0.43 0.43 0.39 0.42 0.42 0.43 0.44 0.40 0.35 0.37 0.32 0.32 0.28 0.34 0.37 0.40 0.38 0.39 0.41 0.40 0.40 0.28 0.33 0.34 0.28 0.29 0.36 0.33 0.28 0.28 0.28 0.26 0.24 0.19 0.21 0.21 0.22 0.26 0.26 0.26 0.27 0.27 0.27 0.29 0.29 0.28 0.28 0.28 0.29 0.29 0.31 0.32 0.32
0.92 1.00 0.87 0.94 0.97 1.11 1.14 1.15 1.13 1.04 0.90 0.71 0.56 0.44 0.49 0.53 0.61 0.60 0.62 0.57 0.59 0.63 0.60 0.47 0.48 0.46 0.44 0.42 0.43 0.46 0.51 0.55 0.53 0.49 0.42 0.49 0.44 0.47 0.45 0.46 0.49 0.46 0.45 0.41 0.36 0.39 0.31 0.31 0.38 0.36 0.34 0.40 0.44 0.43 0.42 0.41 0.39 0.36 0.29 0.31 0.37 0.39 0.36 0.31 0.24 0.26 0.24 0.21 0.21 0.23 0.20 0.20 0.22 0.19 0.26 0.27 0.27 0.28 0.28 0.28 0.29 0.28 0.28 0.28 0.29 0.31 0.31 0.32
0.83 0.84 0.85 0.85 0.95 1.10 1.12 1.10 1.06 0.95 0.78 0.61 0.46 0.45 0.55 0.49 0.59 0.59 0.65 0.62 0.61 0.60 0.52 0.48 0.48 0.52 0.43 0.42 0.40 0.45 0.52 0.47 0.49 0.52 0.45 0.49 0.43 0.52 0.47 0.49 0.54 0.51 0.49 0.49 0.40 0.39 0.41 0.32 0.36 0.38 0.37 0.41 0.44 0.43 0.39 0.41 0.43 0.37 0.35 0.43 0.31 0.26 0.26 0.30 0.29 0.22 0.22 0.21 0.23 0.24 0.24 0.23 0.24 0.23 0.26 0.26 0.27 0.27 0.28 0.28 0.28 0.27 0.28 0.28 0.28 0.30 0.32 0.33
0.81 0.73 0.58 0.70 0.94 1.01 1.01 1.00 0.91 0.75 0.62 0.47 0.42 0.40 0.50 0.51 0.60 0.58 0.61 0.62 0.62 0.56 0.49 0.50 0.45 0.50 0.49 0.43 0.43 0.46 0.47 0.39 0.46 0.45 0.41 0.44 0.39 0.49 0.49 0.51 0.48 0.51 0.52 0.51 0.45 0.44 0.44 0.34 0.35 0.41 0.38 0.41 0.42 0.39 0.30 0.33 0.41 0.43 0.43 0.38 0.41 0.35 0.29 0.26 0.28 0.29 0.26 0.22 0.22 0.22 0.25 0.22 0.26 0.26 0.27 0.27 0.28 0.28 0.28 0.28 0.29 0.30 0.30 0.30 0.31 0.30 0.30 0.31
0.64 0.56 0.50 0.79 0.90 0.95 0.97 0.92 0.71 0.63 0.51 0.39 0.39 0.41 0.50 0.47 0.55 0.60 0.62 0.58 0.52 0.50 0.47 0.46 0.50 0.44 0.47 0.45 0.46 0.40 0.45 0.44 0.43 0.44 0.45 0.47 0.44 0.53 0.49 0.56 0.51 0.53 0.55 0.54 0.48 0.48 0.41 0.43 0.31 0.37 0.43 0.41 0.32 0.35 0.32 0.34 0.32 0.35 0.35 0.34 0.35 0.34 0.37 0.34 0.33 0.29 0.26 0.23 0.23 0.22 0.21 0.25 0.27 0.30 0.29 0.29 0.29 0.30 0.30 0.30 0.32 0.33 0.33 0.34 0.33 0.33 0.32 0.31
0.64 0.52 0.51 0.79 0.90 0.97 0.91 0.74 0.57 0.47 0.41 0.45 0.47 0.43 0.48 0.46 0.50 0.53 0.57 0.59 0.54 0.60 0.49 0.47 0.46 0.41 0.42 0.40 0.41 0.46 0.43 0.43 0.43 0.40 0.41 0.43 0.44 0.39 0.53 0.53 0.55 0.51 0.55 0.53 0.50 0.47 0.41 0.41 0.35 0.39 0.38 0.34 0.33 0.39 0.40 0.41 0.42 0.39 0.37 0.34 0.35 0.32 0.29 0.26 0.24 0.32 0.30 0.26 0.23 0.23 0.22 0.27 0.32 0.32 0.31 0.31 0.33 0.33 0.33 0.34 0.34 0.35 0.35 0.36 0.37 0.38 0.37 0.37
0.48 0.36 0.43 0.78 0.86 0.87 0.66 0.44 0.44 0.50 0.44 0.38 0.37 0.44 0.42 0.52 0.45 0.44 0.46 0.52 0.49 0.45 0.54 0.45 0.46 0.42 0.42 0.42 0.41 0.41 0.40 0.38 0.38 0.37 0.40 0.35 0.42 0.42 0.46 0.52 0.50 0.49 0.45 0.42 0.43 0.49 0.48 0.46 0.42 0.36 0.37 0.37 0.41 0.45 0.49 0.48 0.46 0.43 0.41 0.37 0.38 0.36 0.34 0.29 0.24 0.26 0.30 0.30 0.31 0.29 0.26 0.27 0.35 0.33 0.33 0.34 0.33 0.34 0.35 0.35 0.34 0.35 0.36 0.37 0.38 0.39 0.40 0.39
0.37 0.33 0.62 0.75 0.86 0.79 0.59 0.45 0.48 0.45 0.42 0.46 0.52 0.51 0.54 0.49 0.44 0.44 0.40 0.46 0.43 0.50 0.46 0.43 0.38 0.36 0.41 0.38 0.38 0.38 0.39 0.35 0.38 0.35 0.39 0.40 0.42 0.44 0.45 0.46 0.47 0.46 0.49 0.47 0.50 0.53 0.57 0.45 0.39 0.39 0.42 0.45 0.46 0.47 0.47 0.47 0.45 0.42 0.41 0.42 0.39 0.35 0.34 0.32 0.31 0.32 0.29 0.29 0.26 0.26 0.24 0.28 0.34 0.33 0.32 0.34 0.34 0.34 0.33 0.33 0.33 0.34 0.35 0.35 0.36 0.37 0.38 0.39
0.32 0.34 0.42 0.67 0.77 0.71 0.49 0.33 0.32 0.34 0.38 0.43 0.45 0.43 0.50 0.46 0.43 0.38 0.36 0.41 0.42 0.44 0.40 0.40 0.43 0.44 0.36 0.42 0.39 0.34 0.39 0.30 0.39 0.37 0.37 0.43 0.39 0.49 0.46 0.47 0.48 0.45 0.47 0.47 0.41 0.51 0.38 0.41 0.38 0.31 0.32 0.34 0.38 0.41 0.40 0.41 0.42 0.39 0.37 0.39 0.40 0.41 0.39 0.38 0.35 0.35 0.27 0.27 0.27 0.25 0.21 0.24 0.30 0.33 0.32 0.32 0.32 0.31 0.31 0.32 0.33 0.33 0.34 0.36 0.37 0.38 0.39 0.40
0.30 0.36 0.37 0.49 0.63 0.55 0.35 0.38 0.31 0.32 0.34 0.34 0.36 0.35 0.38 0.40 0.42 0.38 0.37 0.37 0.44 0.43 0.41 0.38 0.40 0.41 0.40 0.42 0.41 0.43 0.45 0.39 0.34 0.43 0.40 0.39 0.38 0.47 0.47 0.48 0.52 0.47 0.51 0.55 0.51 0.53 0.40 0.37 0.37 0.29 0.25 0.23 0.23 0.23 0.24 0.27 0.31 0.36 0.39 0.39 0.40 0.39 0.37 0.35 0.30 0.31 0.27 0.29 0.29 0.26 0.25 0.29 0.32 0.33 0.33 0.32 0.31 0.30 0.31 0.31 0.33 0.34 0.34 0.35 0.36 0.38 0.40 0.42
0.23 0.13 0.25 0.31 0.50 0.51 0.44 0.43 0.33 0.32 0.30 0.30 0.30 0.33 0.36 0.31 0.36 0.38 0.38 0.35 0.40 0.42 0.43 0.43 0.45 0.47 0.43 0.43 0.39 0.38 0.37 0.43 0.39 0.37 0.38 0.38 0.42 0.46 0.49 0.50 0.48 0.45 0.45 0.46 0.50 0.51 0.40 0.42 0.40 0.36 0.32 0.28 0.27 0.29 0.34 0.37 0.36 0.33 0.36 0.39 0.39 0.41 0.41 0.39 0.36 0.31 0.27 0.28 0.27 0.29 0.29 0.29 0.30 0.32 0.31 0.30 0.29 0.29 0.29 0.29 0.31 0.33 0.35 0.36 0.37 0.39 0.40 0.42
0.28 0.16 0.15 0.17 0.33 0.37 0.36 0.40 0.33 0.32 0.25 0.31 0.24 0.30 0.26 0.28 0.30 0.33 0.41 0.30 0.36 0.34 0.38 0.38 0.34 0.32 0.31 0.33 0.32 0.34 0.36 0.36 0.38 0.37 0.36 0.35 0.37 0.39 0.42 0.42 0.41 0.42 0.44 0.44 0.47 0.46 0.37 0.31 0.32 0.34 0.35 0.35 0.35 0.33 0.34 0.36 0.34 0.36 0.36 0.34 0.36 0.36 0.36 0.34 0.31 0.28 0.32 0.29 0.25 0.30 0.31 0.29 0.30 0.33 0.32 0.31 0.30 0.30 0.31 0.31 0.31 0.33 0.34 0.35 0.37 0.39 0.41 0.42
0.12 0.16 0.23 0.30 0.23 0.21 0.21 0.27 0.35 0.33 0.34 0.30 0.25 0.28 0.23 0.23 0.26 0.24 0.32 0.33 0.36 0.39 0.32 0.37 0.36 0.36 0.34 0.33 0.34 0.31 0.31 0.32 0.34 0.32 0.36 0.39 0.38 0.37 0.33 0.37 0.39 0.44 0.46 0.45 0.49 0.41 0.34 0.30 0.30 0.32 0.31 0.33 0.34 0.35 0.35 0.35 0.35 0.35 0.34 0.33 0.31 0.31 0.32 0.31 0.31 0.32 0.33 0.30 0.27 0.30 0.32 0.31 0.33 0.34 0.34 0.33 0.33 0.31 0.32 0.33 0.35 0.37 0.38 0.38 0.38 0.39 0.40 0.40
0.22 0.20 0.20 0.31 0.18 0.22 0.25 0.29 0.30 0.32 0.32 0.36 0.32 0.29 0.23 0.22 0.21 0.27 0.29 0.31 0.34 0.33 0.35 0.26 0.29 0.32 0.36 0.39 0.37 0.32 0.33 0.27 0.28 0.35 0.35 0.34 0.35 0.36 0.34 0.34 0.36 0.46 0.45 0.42 0.46 0.49 0.42 0.36 0.37 0.36 0.34 0.36 0.38 0.39 0.38 0.37 0.36 0.36 0.35 0.35 0.34 0.34 0.32 0.32 0.32 0.33 0.33 0.31 0.31 0.32 0.33 0.32 0.34 0.34 0.34 0.33 0.34 0.35 0.36 0.39 0.39 0.37 0.36 0.37 0.38 0.38 0.38 0.39
0.14 0.16 0.13 0.24 0.23 0.20 0.24 0.28 0.28 0.27 0.23 0.26 0.24 0.26 0.23 0.21 0.19 0.23 0.30 0.28 0.24 0.28 0.38 0.30 0.32 0.34 0.35 0.36 0.35 0.31 0.33 0.36 0.35 0.31 0.35 0.36 0.34 0.36 0.34 0.35 0.32 0.36 0.40 0.39 0.40 0.44 0.39 0.32 0.39 0.39 0.36 0.36 0.38 0.39 0.41 0.39 0.38 0.36 0.37 0.37 0.37 0.36 0.34 0.34 0.34 0.35 0.36 0.35 0.35 0.34 0.33 0.33 0.37 0.38 0.37 0.37 0.38 0.39 0.39 0.37 0.36 0.37 0.37 0.37 0.39 0.42 0.44 0.44
0.22 0.27 0.28 0.18 0.13 0.16 0.18 0.21 0.23 0.23 0.21 0.25 0.23 0.25 0.27 0.27 0.26 0.32 0.29 0.36 0.32 0.28 0.30 0.28 0.30 0.31 0.34 0.34 0.36 0.36 0.41 0.42 0.42 0.40 0.40 0.37 0.29 0.35 0.33 0.32 0.38 0.31 0.33 0.33 0.37 0.38 0.39 0.33 0.39 0.35 0.29 0.28 0.35 0.37 0.38 0.39 0.39 0.36 0.34 0.34 0.33 0.32 0.30 0.31 0.31 0.32 0.30 0.29 0.30 0.32 0.32 0.32 0.35 0.37 0.37 0.37 0.38 0.39 0.39 0.38 0.37 0.38 0.42 0.46 0.45 0.43 0.42 0.43
0.25 0.28 0.31 0.24 0.13 0.15 0.15 0.17 0.18 0.18 0.15 0.19 0.22 0.26 0.25 0.24 0.28 0.29 0.23 0.31 0.33 0.34 0.31 0.29 0.29 0.26 0.24 0.24 0.24 0.30 0.37 0.36 0.35 0.35 0.35 0.36 0.35 0.32 0.32 0.33 0.35 0.31 0.30 0.29 0.33 0.31 0.32 0.30 0.28 0.29 0.25 0.26 0.33 0.34 0.32 0.33 0.32 0.28 0.29 0.29 0.29 0.31 0.35 0.36 0.36 0.36 0.34 0.34 0.32 0.31 0.30 0.36 0.42 0.47 0.44 0.45 0.46 0.46 0.43 0.44 0.46 0.47 0.46 0.43 0.41 0.42 0.43 0.44
Wind_Speed
10 10 11 11 11 11 11 11 11 11 10 10 10 10 10 10 10 10 10 10 10 11 11 11 11 11 12 12 12 12 12 12 12 12 12 13 12 12 11 11 10 10 10 10 9 9 10 10 10 10 10 11 11 11 11 11 11 11 10 11 12 12 11 11 11 12 12 14 14 14 14 13 15 15 15 15 15 15 15 14 14 14 14 13 14 13 11 9
12 12 12 12 12 12 12 12 12 12 12 12 12 12 12 12 12 12 12 12 12 12 12 12 13 13 13 13 13 13 13 13 13 14 14 14 14 14 13 13 12 11 11 11 12 11 11 12 12 11 11 12 13 13 13 13 12 12 12 13 14 13 13 13 13 14 14 15 16 16 16 15 16 16 15 16 17 16 16 16 15 16 17 15 15 13 12 12
14 13 14 14 14 14 14 14 14 14 14 14 13 13 14 13 14 14 14 14 14 14 14 14 14 14 14 14 14 14 14 14 14 15 14 13 13 14 15 15 14 14 13 13 14 13 13 13 13 12 13 14 15 14 14 14 14 14 14 15 16 15 15 16 16 17 17 17 17 17 17 16 17 17 16 17 18 18 17 17 16 17 19 18 16 15 14 14
15 15 15 15 15 15 15 15 15 15 15 15 15 15 15 15 15 15 16 15 15 16 16 16 16 16 16 16 16 15 15 14 14 14 13 12 13 14 15 16 16 16 16 15 15 15 15 14 14 14 14 16 16 16 16 16 16 16 15 16 17 16 16 19 19 20 20 18 18 18 17 18 19 18 17 17 19 19 18 18 18 19 21 19 17 17 17 16
17 17 17 17 17 17 17 17 17 17 17 17 17 17 17 17 17 17 17 17 17 17 17 18 18 18 18 17 17 16 15 14 14 15 14 15 15 16 15 16 17 17 17 16 16 16 16 16 16 16 16 17 17 16 18 19 17 17 18 19 19 17 18 20 20 20 20 19 19 18 18 20 19 19 19 18 18 20 19 20 21 21 21 20 18 19 19 19
19 18 18 18 18 18 18 18 18 19 19 19 19 19 19 19 19 19 19 19 19 19 19 19 19 19 19 18 18 16 15 15 17 17 17 16 16 16 16 16 17 18 18 18 18 18 18 18 18 18 18 18 18 18 19 20 19 20 20 20 22 21 20 21 21 21 20 20 20 20 21 21 20 21 21 20 22 24 23 21 22 23 22 20 19 19 20 21
20 20 20 19 19 19 19 20 20 20 20 20 20 20 20 21 21 21 21 21 21 21 21 21 21 20 20 19 18 17 16 18 19 18 18 17 17 17 17 17 17 18 19 19 20 20 19 19 19 20 19 19 20 20 21 21 20 21 21 21 23 23 23 24 23 22 22 22 23 22 22 21 22 23 22 22 26 28 26 23 24 24 23 21 20 21 22 22
20 20 20 20 20 20 20 20 21 21 21 21 21 21 22 22 22 22 22 22 22 22 22 22 21 21 21 19 18 17 17 20 20 19 18 18 18 18 17 18 18 19 20 21 21 21 20 20 21 21 20 21 20 20 21 21 21 22 22 22 22 23 23 24 24 24 24 24 24 24 24 24 24 24 23 25 29 30 26 25 25 25 24 22 23 23 24 24
21 21 21 21 21 21 21 21 21 22 22 22 22 22 22 22 22 22 22 23 23 23 23 23 22 22 21 19 18 18 19 20 20 19 19 19 19 19 19 19 19 19 20 21 22 21 21 21 22 22 21 21 21 21 21 22 22 22 23 23 23 23 24 24 24 25 25 25 24 24 26 26 25 24 25 27 30 29 26 26 26 25 25 25 25 26 25 26
21 21 22 21 21 22 22 22 22 22 22 23 23 23 23 23 23 23 23 24 24 24 24 24 23 23 22 21 19 18 20 21 20 21 21 21 20 20 20 20 20 20 20 21 22 22 22 22 22 22 22 22 21 21 21 21 22 22 23 25 24 25 26 25 25 26 25 25 24 25 27 27 23 22 23 27 28 26 24 25 25 25 26 27 27 27 27 27
22 22 22 22 22 22 22 23 23 23 23 23 24 24 24 24 24 25 25 25 25 25 25 25 25 24 23 22 21 20 21 22 22 22 22 22 22 22 22 22 21 21 22 22 22 23 23 23 22 21 22 22 21 22 22 23 23 23 24 25 26 25 26 26 25 26 25 25 25 25 27 26 21 21 24 28 26 23 23 25 24 24 26 26 27 27 27 27
23 23 23 23 24 24 24 24 24 24 24 25 25 25 26 26 26 26 26 26 26 26 26 26 25 25 24 23 23 24 24 24 24 24 24 23 23 23 23 23 23 23 22 23 24 24 24 23 22 22 23 22 21 22 23 23 23 24 23 25 27 25 26 28 26 25 23 24 24 22 26 25 21 22 26 28 26 24 25 25 25 25 26 27 27 27 27 28
25 25 24 25 25 25 25 25 25 25 26 26 27 27 27 28 27 28 27 27 27 27 27 26 26 26 25 25 25 25 25 25 25 25 25 25 24 24 24 24 23 23 23 23 24 24 24 24 23 24 24 23 23 23 23 23 24 25 24 25 27 26 26 25 22 22 22 23 23 21 26 26 23 24 27 28 27 25 25 27 27 27 27 28 28 28 29 29
26 26 26 26 27 26 26 26 26 26 27 27 28 28 28 28 28 29 28 29 28 28 27 26 26 26 26 27 26 26 26 26 26 26 26 26 25 25 25 25 24 24 24 24 24 24 23 23 23 24 24 24 24 25 25 25 25 25 25 26 26 26 27 23 19 21 23 24 23 22 26 28 25 25 26 27 26 25 26 28 28 28 28 28 29 29 30 29
27 27 27 27 27 27 27 27 27 27 28 28 28 29 29 29 29 29 29 29 28 28 27 27 26 26 26 28 27 26 26 26 26 27 27 26 25 25 25 25 25 25 24 24 24 24 24 23 23 24 24 24 24 24 25 25 25 24 26 28 26 27 28 26 22 22 24 25 23 23 27 29 28 26 26 26 25 25 27 29 29 29 29 28 29 29 30 30
27 27 27 27 27 27 27 27 28 28 28 29 29 29 29 30 29 29 29 29 28 28 27 27 27 26 27 27 26 25 26 26 27 27 27 26 26 26 25 25 24 24 24 24 24 23 24 24 24 24 24 24 23 22 24 26 26 25 27 29 28 28 29 28 25 23 24 25 25 27 29 30 29 28 27 25 26 26 27 29 29 29 29 29 29 30 30 30
27 27 27 27 27 27 27 27 28 28 29 29 30 30 30 30 29 29 28 27 27 27 27 27 27 27 28 27 26 26 26 26 26 26 26 26 26 25 24 24 24 24 24 24 24 23 24 24 25 25 24 23 21 21 24 27 27 26 26 29 29 29 28 28 27 24 24 25 28 31 32 33 32 30 29 26 26 27 27 29 30 30 30 29 30 31 31 30
27 27 26 26 26 26 27 27 28 28 29 30 30 30 30 29 28 27 26 26 25 25 27 27 25 27 29 27 26 26 25 26 26 25 25 25 25 25 25 24 24 23 23 23 23 23 24 25 25 25 25 24 22 22 26 28 29 29 28 29 30 30 29 30 30 26 25 29 31 32 34 36 35 33 33 31 29 29 30 30 30 30 30 30 31 31 31 31
28 27 27 27 27 27 27 27 28 29 29 30 29 29 28 27 26 26 26 26 25 25 27 27 26 27 28 27 27 28 27 27 27 26 26 25 25 26 25 25 24 23 23 24 25 25 25 25 25 26 26 26 25 26 30 32 31 31 30 30 31 31 31 31 31 29 28 32 34 34 36 37 37 35 34 34 32 32 32 31 31 32 32 32 32 32 32 32
29 28 28 28 28 28 28 28 28 29 30 29 28 27 26 26 27 27 27 27 28 28 28 29 29 30 30 30 30 30 30 29 28 27 26 26 26 25 26 25 24 25 25 24 26 27 26 27 28 28 28 28 28 28 31 33 31 32 32 32 32 33 34 32 32 31 28 32 35 35 38 39 38 37 35 35 34 33 33 32 33 33 32 33 32 32 32 33
30 30 29 29 29 29 29 29 29 30 29 29 28 27 26 27 28 28 29 30 31 31 32 32 32 33 33 32 31 30 30 30 29 28 27 26 25 26 27 25 25 27 26 25 27 27 27 30 32 30 30 30 29 29 30 31 31 32 32 33 34 33 35 34 33 32 28 31 36 35 38 40 38 37 35 34 34 33 33 33 34 34 33 32 32 33 33 33
31 31 31 30 30 30 30 30 30 30 29 28 27 26 27 28 28 29 30 32 33 32 33 34 34 36 36 35 33 31 31 30 29 28 27 26 26 27 27 26 27 28 26 26 28 28 30 33 33 31 31 30 29 28 29 31 31 32 31 32 34 32 35 35 32 32 29 30 35 35 38 40 38 37 35 34 34 34 34 34 34 33 32 31 32 33 33 33
32 32 32 32 31 31 31 31 31 30 29 28 27 27 28 28 29 29 30 31 33 32 32 34 34 36 36 36 35 32 32 32 30 29 27 26 26 27 27 27 28 28 28 29 29 31 33 33 33 32 30 29 30 29 28 30 30 31 31 32 34 32 33 35 32 31 30 30 34 36 39 40 37 36 34 33 35 34 34 34 33 33 32 33 33 33 33 33
33 33 33 33 33 32 32 32 31 30 29 27 27 28 28 29 29 29 30 31 33 32 32 33 33 34 34 33 32 31 32 31 30 29 27 26 25 25 27 27 28 29 30 30 31 34 36 33 31 31 30 30 32 32 29 30 32 32 31 31 35 34 34 36 34 32 32 32 32 34 40 40 35 34 32 30 31 32 32 33 33 34 33 33 33 33 33 33
34 33 33 33 33 33 32 31 30 29 29 28 28 29 29 29 29 29 30 31 33 33 32 31 31 31 30 28 27 27 28 28 27 26 25 25 24 24 26 26 27 29 29 29 31 35 36 32 29 29 30 31 32 32 30 29 33 34 31 31 35 35 34 35 33 32 33 33 30 29 34 35 30 29 30 28 29 31 31 31 32 32 33 32 31 31 31 31
34 33 33 32 32 32 31 30 30 29 29 29 29 29 29 28 28 29 29 31 34 32 29 28 26 25 24 23 22 21 22 24 23 22 22 23 23 23 24 25 26 27 27 27 29 32 32 30 28 28 29 30 31 32 30 28 32 35 32 30 32 33 32 32 31 30 30 31 30 26 28 34 33 29 30 30 30 32 30 29 30 30 30 29 28 29 28 29
34 34 33 32 32 31 30 30 30 30 29 30 30 30 29 28 28 28 28 29 31 28 24 24 23 22 22 22 21 20 22 23 21 22 22 22 23 24 25 26 25 26 25 25 28 30 28 27 28 28 28 28 29 31 29 26 30 34 30 28 30 30 31 30 28 29 30 32 32 28 27 34 39 34 31 32 31 30 29 28 27 26 26 26 27 27 27 28
34 34 34 33 33 32 32 32 32 31 31 31 30 30 29 28 28 27 25 27 28 25 23 24 23 24 24 23 22 22 23 24 22 23 23 22 23 23 25 26 24 26 25 25 30 29 26 27 29 28 27 28 29 30 28 25 29 32 28 27 28 29 30 28 29 30 30 31 32 28 25 29 38 36 30 30 28 26 27 25 24 24 25 26 26 26 28 29
34 34 34 34 34 33 33 33 33 32 32 31 30 30 29 28 28 25 24 27 28 26 25 25 25 25 24 23 23 23 23 23 22 23 22 22 24 23 24 25 23 25 26 26 30 29 25 26 28 27 27 29 29 29 27 26 30 30 27 27 27 28 29 28 30 30 29 32 31 27 24 26 35 35 26 25 24 22 22 22 24 25 24 24 25 27 29 29
35 34 34 34 34 34 33 33 33 32 31 30 29 29 29 29 28 25 27 30 29 27 27 26 26 25 23 23 24 24 23 23 22 22 22 23 24 24 24 24 23 25 26 27 30 30 27 26 27 28 28 29 29 28 28 28 30 28 27 29 29 30 30 29 31 29 28 32 31 27 27 26 30 29 23 22 22 21 23 24 26 26 24 25 26 28 29 29
35 34 34 34 33 33 32 32 32 31 30 30 29 29 29 28 26 25 29 30 28 27 26 25 24 23 22 22 23 23 23 24 24 23 24 25 25 25 25 25 24 25 27 29 30 30 29 28 28 29 28 27 28 29 30 29 29 28 28 29 29 30 30 28 30 27 27 32 30 28 27 26 29 28 24 24 25 25 27 26 26 25 25 27 29 29 30 29
35 35 34 35 34 33 33 32 31 30 30 30 29 29 28 27 28 30 31 28 26 25 24 23 23 22 23 23 24 25 24 26 26 25 27 27 27 27 26 26 26 26 28 30 30 30 31 31 31 30 30 28 28 30 31 31 29 28 29 29 29 29 28 27 28 26 27 32 31 28 26 28 34 33 30 32 32 30 27 26 28 28 29 32 32 31 30 29
37 36 36 36 35 35 35 33 31 30 29 29 28 27 26 26 29 32 31 28 27 26 24 25 26 25 25 27 28 28 28 29 29 28 28 28 29 30 30 30 28 28 30 30 31 32 33 34 32 31 32 30 29 30 31 31 30 29 30 29 27 26 27 28 28 26 29 33 33 29 27 30 34 33 32 32 31 29 28 30 33 32 33 34 33 31 29 29
39 38 37 37 37 36 36 35 34 32 31 29 28 27 26 29 31 31 30 31 30 28 28 29 29 29 29 30 31 29 29 31 29 28 29 29 30 32 32 32 31 30 32 32 33 33 34 36 33 31 31 30 30 32 32 31 31 32 32 30 30 30 28 28 27 29 31 32 31 28 27 30 31 30 30 29 30 33 34 33 33 33 34 34 34 34 33 32
40 40 39 38 38 38 37 36 36 34 32 31 29 28 30 33 33 32 32 33 32 31 32 32 31 32 32 32 32 31 31 31 29 29 30 30 31 32 32 33 32 32 32 32 33 33 34 37 36 33 32 31 32 34 33 31 32 34 32 31 35 35 32 31 32 33 32 31 31 30 32 35 35 35 35 33 35 36 34 33 32 33 34 33 34 35 34 32
41 40 40 40 40 40 39 38 37 35 34 32 31 33 35 36 34 33 32 32 31 31 33 33 31 32 34 34 33 33 32 32 31 30 31 31 32 33 34 34 33 32 32 33 33 33 35 37 36 35 36 34 34 34 32 31 31 32 32 33 35 33 32 34 35 35 33 33 35 35 37 38 37 38 37 34 34 33 32 32 32 33 33 32 32 33 32 32
40 40 40 41 40 40 40 40 38 37 36 34 35 37 38 38 37 36 35 34 33 32 32 33 33 34 34 34 34 34 33 32 32 31 32 33 33 33 34 34 32 32 33 33 33 33 35 38 39 40 41 39 36 35 34 34 33 32 33 35 34 31 32 33 32 31 32 34 35 37 42 40 34 35 35 31 31 32 33 32 31 32 31 30 30 31 31 30
41 41 41 42 41 40 39 40 39 38 37 37 40 42 41 40 40 39 38 37 37 36 36 38 38 37 37 37 38 37 36 36 35 35 35 35 35 36 35 34 32 32 32 32 33 34 34 37 39 40 40 38 35 35 37 37 36 35 36 36 33 32 32 32 31 31 33 35 34 36 42 41 36 35 35 33 33 34 33 30 28 27 27 28 29 30 30 29
41 41 41 42 41 40 40 40 39 38 38 39 42 43 42 42 41 40 39 39 38 38 40 41 40 40 39 39 39 39 39 39 39 38 38 37 38 38 35 34 32 33 33 32 34 35 34 35 37 38 37 36 34 35 36 37 36 36 36 35 35 34 33 32 32 31 32 34 34 33 36 37 37 36 35 34 34 33 32 30 29 28 27 28 28 27 27 27
41 40 41 40 39 39 39 39 39 39 40 42 43 43 42 42 42 41 41 40 39 40 40 41 40 40 41 41 41 40 40 41 40 40 40 39 39 39 37 36 36 37 36 35 35 35 34 35 37 37 36 36 36 36 35 34 33 33 34 35 36 36 35 34 34 33 33 33 33 32 32 33 35 35 34 35 34 33 32 32 33 32 31 31 30 28 27 27
41 40 41 40 38 37 37 38 39 40 41 43 44 43 43 42 42 42 42 43 42 42 41 40 41 41 42 42 42 41 41 41 42 42 41 41 41 40 40 39 38 38 38 38 37 36 35 35 36 36 36 38 40 38 35 34 33 32 32 33 33 34 34 33 33 34 34 33 32 31 31 31 33 34 35 37 37 36 37 37 37 36 36 36 35 33 33 32
41 41 40 39 38 37 37 38 40 40 42 43 43 43 42 42 42 42 43 43 43 42 41 41 41 42 41 42 42 41 41 42 42 42 42 43 42 42 41 41 40 40 40 40 39 38 36 35 37 39 39 39 40 39 36 36 35 34 33 32 32 32 33 34 34 33 33 33 33 33 34 33 34 36 37 39 40 40 41 41 41 40 39 40 39 38 37 37
41 41 40 39 39 38 38 39 40 41 42 42 42 42 42 42 42 42 42 42 42 41 41 41 41 41 42 42 42 42 42 43 43 43 43 43 43 44 44 44 44 43 41 40 40 39 38 37 39 41 41 42 42 42 40 38 37 38 38 37 35 35 35 36 36 35 35 36 36 37 38 38 38 40 41 41 43 43 43 44 42 40 40 40 40 39 38 38
41 42 41 40 40 40 39 40 41 42 42 41 41 42 42 42 42 43 42 41 41 41 41 41 41 41 42 41 42 42 41 42 43 44 43 43 43 44 46 46 45 42 39 40 40 40 40 40 40 40 39 39 39 39 40 40 39 40 40 39 39 39 38 38 38 36 37 39 40 41 43 44 43 44 45 46 48 48 47 46 43 41 41 41 41 41 40 41
40 41 41 41 43 43 42 42 42 42 42 43 43 43 43 43 43 44 43 43 42 42 41 41 40 40 41 41 42 42 41 41 42 42 42 41 42 42 43 44 43 41 40 41 38 38 41 40 38 38 37 37 37 37 39 40 39 39 38 38 38 38 37 38 39 38 38 41 45 45 46 48 47 47 49 50 51 50 49 48 45 41 42 43 43 43 43 42
39 41 40 41 42 44 45 44 43 42 42 42 43 43 43 44 43 42 43 43 44 43 42 42 41 41 41 41 42 43 42 42 42 41 42 42 41 41 41 42 43 42 43 43 39 36 38 40 39 41 42 43 44 44 43 41 41 41 41 42 42 40 39 40 42 43 44 45 48 48 48 50 49 47 49 50 50 50 50 49 47 44 45 46 45 44 43 43
39 40 40 39 40 43 44 44 44 42 41 41 41 41 43 44 43 42 42 42 42 42 42 42 42 42 43 43 43 43 43 43 43 43 43 43 42 42 43 44 44 44 45 44 41 38 40 43 44 47 49 49 50 51 50 48 48 48 48 50 50 48 47 48 49 50 49 47 48 50 50 52 50 48 50 52 52 52 52 50 49 48 48 48 47 46 45 44
40 40 40 39 40 41 42 43 43 43 42 42 41 41 43 43 42 41 41 41 41 40 40 41 42 42 42 42 41 41 42 42 42 42 41 40 40 41 42 42 42 42 42 42 41 41 43 47 48 49 51 51 50 51 52 51 52 52 52 53 53 53 53 53 55 56 53 52 53 53 52 54 52 50 51 53 53 53 53 52 52 52 51 50 49 48 48 48
40 40 40 40 40 41 41 40 40 41 42 42 41 42 43 43 43 41 40 40 40 40 40 41 40 39 39 39 38 39 40 40 40 39 38 38 39 39 40 41 40 39 39 40 40 39 40 44 45 47 50 49 49 50 50 51 52 52 53 53 53 53 54 55 56 56 55 57 58 56 56 57 54 51 51 52 52 53 53 53 53 53 52 52 50 49 48 47
40 40 40 40 40 41 40 40 40 40 41 41 42 42 42 43 43 42 40 40 40 40 40 40 39 37 37 38 38 38 38 36 36 37 36 36 38 37 38 40 40 40 40 39 39 38 39 41 43 45 47 47 48 49 49 49 50 51 51 51 52 53 54 55 55 53 53 56 57 57 58 57 54 52 53 53 53 52 52 52 53 52 52 50 47 44 43 42
40 40 40 40 40 40 39 40 40 40 41 41 41 41 40 41 41 40 40 40 40 38 38 38 39 38 37 38 38 37 35 34 36 38 38 39 41 41 40 41 41 42 42 41 40 40 41 42 43 43 44 44 45 47 48 48 49 51 53 53 54 54 54 54 53 51 52 54 56 56 56 55 53 52 52 52 51 50 49 49 49 47 45 43 42 42 42 42
41 41 40 40 40 40 39 39 39 41 42 41 40 40 41 40 39 39 40 41 39 37 37 38 40 40 40 40 40 39 39 40 42 43 44 45 45 46 46 46 45 44 44 44 43 42 42 42 42 42 43 43 43 45 48 48 46 47 49 52 53 54 53 53 52 52 52 52 52 51 49 47 45 44 44 44 44 44 43 42 40 40 40 41 42 43 44 44
Wind_Direction
287 288 290 291 292 293 294 295 296 297 298 299 299 300 300 300 300 300 300 301 301 301 302 302 303 303 302 300 299 297 295 290 286 282 278 278 275 272 270 269 268 265 271 277 277 276 279 281 277 279 284 284 285 284 284 283 284 290 293 291 290 290 291 289 287 290 295 297 296 293 289 288 295 298 299 302 300 296 295 291 289 289 289 289 290 290 285 273
285 286 287 288 289 290 290 291 291 292 293 294 295 294 295 296 296 296 296 296 296 297 297 298 299 300 299 297 296 295 293 289 285 281 278 279 276 271 267 267 266 264 269 273 272 272 275 276 274 278 281 281 283 284 283 282 280 283 287 287 285 284 286 286 286 289 293 293 292 291 288 285 289 295 299 298 296 295 292 290 289 288 287 287 287 283 275 266
282 284 285 286 287 287 288 288 288 288 289 289 290 290 291 291 292 292 292 292 293 294 294 295 296 296 296 294 294 294 292 290 287 281 280 281 278 272 267 265 264 263 268 271 271 271 272 273 272 276 279 279 280 281 282 282 279 280 282 285 283 281 285 286 286 286 288 290 290 290 289 286 287 292 295 294 295 293 286 284 286 284 282 280 279 276 271 266
281 282 283 284 285 285 286 286 286 286 286 287 287 287 287 287 288 288 289 289 289 290 291 292 292 293 293 292 292 291 290 291 284 279 280 282 283 279 272 267 264 264 269 272 272 272 273 274 274 276 278 277 279 280 279 277 278 281 279 279 281 281 283 283 283 284 286 288 287 289 291 289 288 289 289 292 297 292 282 278 278 278 280 279 276 273 269 266
279 280 282 282 283 283 284 284 284 285 284 285 285 285 285 285 285 285 286 286 286 287 287 289 289 290 290 289 289 287 289 288 280 279 281 281 284 282 275 270 265 265 269 270 271 272 273 275 276 277 278 277 278 280 278 273 275 281 278 275 278 281 282 282 283 284 285 287 287 288 289 289 289 288 285 286 288 288 284 281 277 277 280 279 276 273 270 267
279 280 281 281 282 283 283 283 283 283 283 284 284 284 284 284 284 284 284 284 285 285 285 286 287 288 288 286 285 284 283 280 279 281 280 280 282 279 274 271 267 266 267 267 269 271 272 274 275 275 277 278 276 275 277 275 274 280 281 278 278 278 280 282 283 285 286 286 285 286 287 288 290 289 285 281 278 282 285 283 279 278 278 277 275 273 270 268
278 279 279 280 280 282 283 283 283 283 283 283 283 283 283 283 283 283 283 284 284 284 284 285 286 287 286 284 282 283 279 277 281 280 277 278 280 278 274 272 269 268 267 267 269 270 271 273 273 272 276 279 277 273 277 278 275 277 281 281 279 277 277 280 282 285 285 283 283 286 288 287 286 288 288 283 279 281 284 284 280 278 277 275 272 270 269 268
277 278 278 279 279 281 282 282 283 283 283 283 283 283 283 283 283 282 283 282 282 283 283 283 284 285 285 282 280 283 279 277 280 278 276 278 278 277 275 273 271 270 268 267 268 269 271 271 270 273 276 277 275 275 278 281 278 276 278 280 280 279 278 281 283 284 284 283 284 286 286 282 281 287 289 285 283 284 283 282 280 278 276 273 270 269 269 269
275 277 278 278 279 280 281 282 282 282 282 282 282 282 282 282 282 282 281 281 281 281 282 282 283 283 282 280 280 281 278 277 279 277 276 277 277 276 274 274 271 270 270 269 269 269 271 271 270 272 274 275 275 275 277 279 279 275 276 279 281 282 282 284 284 283 283 283 284 284 284 282 281 287 289 284 284 286 283 280 278 276 274 272 270 269 269 269
274 276 277 277 279 280 280 281 281 281 282 282 282 282 282 282 282 281 281 281 281 281 281 281 281 282 279 278 278 277 277 278 279 277 276 276 275 274 273 273 271 270 271 271 269 268 270 270 271 272 274 276 275 276 276 276 279 279 279 281 281 282 283 283 282 282 283 282 281 281 282 283 282 285 287 286 286 287 283 280 279 276 274 273 272 271 270 270
274 276 277 277 279 280 280 280 280 281 282 282 282 282 282 282 281 281 281 280 280 280 280 279 280 279 277 276 273 273 277 279 278 276 275 274 273 272 272 272 271 270 270 272 270 268 269 270 272 275 276 277 277 278 277 276 281 283 285 286 284 284 285 282 280 281 282 283 280 278 281 283 283 283 282 283 288 289 287 285 282 277 276 275 274 274 273 272
273 275 276 277 279 279 280 280 280 280 281 281 282 281 281 281 280 280 280 280 280 280 279 279 278 277 276 275 272 273 278 278 277 276 274 273 272 271 271 271 270 270 270 272 272 271 271 270 271 272 274 276 279 281 279 279 284 285 287 288 286 288 288 284 281 278 279 283 281 280 283 283 280 279 278 281 286 290 290 289 285 279 277 276 276 276 275 274
273 274 275 277 278 278 279 280 280 280 281 281 281 281 281 280 280 280 279 279 279 279 279 277 276 276 275 275 275 276 278 278 276 275 274 272 272 272 271 270 270 271 270 271 273 272 272 271 270 270 272 275 277 279 280 283 285 285 286 285 287 289 286 285 285 280 279 282 280 281 283 282 281 277 277 283 285 288 290 289 288 284 280 278 277 276 276 275
272 273 275 276 276 277 278 279 280 280 281 281 281 281 281 280 280 279 279 278 278 278 277 276 275 275 274 275 277 277 277 277 275 274 273 272 272 272 272 271 271 271 271 272 273 273 273 273 272 273 274 274 277 281 283 285 285 284 285 284 286 285 282 285 287 283 283 283 277 277 281 282 284 281 280 284 284 285 287 287 288 287 284 280 278 277 276 276
272 273 275 275 276 277 277 278 279 280 281 281 281 281 281 280 279 279 278 277 277 276 275 275 274 274 275 276 277 277 277 276 275 273 272 271 270 271 272 270 271 272 272 271 272 273 273 273 273 273 275 276 278 282 284 285 284 284 283 283 284 281 283 288 286 280 280 283 278 275 280 282 284 284 282 284 283 283 284 285 287 287 285 282 279 277 277 277
272 273 274 275 276 277 278 279 280 282 282 282 282 282 281 280 279 278 277 276 276 274 273 273 272 272 275 277 277 277 276 275 275 274 272 271 269 270 271 270 272 272 271 271 271 272 273 273 273 272 274 277 278 281 284 283 283 283 280 281 282 282 286 289 288 281 278 282 281 277 280 283 284 284 284 284 282 280 281 283 285 286 285 282 281 279 278 278
271 273 274 275 276 278 279 280 282 283 284 284 284 283 281 280 279 278 277 276 275 272 271 272 272 273 275 277 277 276 275 274 275 275 273 271 269 269 271 271 272 271 271 272 271 272 273 272 272 273 275 277 279 281 280 278 280 282 281 281 283 283 284 286 289 288 281 281 282 280 279 280 282 283 283 284 282 281 281 282 283 285 285 283 282 281 279 279
271 273 274 275 277 278 280 282 283 284 285 285 285 283 281 279 277 277 276 275 274 273 273 273 273 275 276 276 276 276 276 275 275 275 274 272 270 269 270 271 271 270 270 272 272 272 272 273 273 273 275 277 277 275 271 273 278 281 281 282 284 283 282 283 286 288 285 282 281 281 280 279 281 282 282 282 281 281 280 281 283 284 284 283 282 281 280 279
271 272 274 275 276 279 281 282 283 285 286 286 285 283 280 278 277 276 276 275 273 273 274 272 271 274 276 276 276 277 277 276 275 274 272 271 269 269 270 271 271 269 269 272 272 269 269 274 273 270 273 274 274 270 269 273 279 281 281 281 281 283 282 283 284 286 286 284 280 279 280 280 281 281 281 281 280 280 280 281 282 283 283 282 282 281 279 277
271 272 273 275 276 278 281 282 283 286 287 286 284 282 279 278 278 277 277 274 272 273 274 272 270 272 275 277 277 277 277 275 274 273 271 269 268 268 269 271 272 270 269 270 270 269 269 270 269 269 271 272 272 270 271 276 280 282 282 281 280 282 283 284 285 286 286 284 281 278 279 280 280 280 280 281 281 280 281 281 280 281 281 280 280 279 278 277
271 271 272 274 275 278 280 281 283 286 287 285 283 281 278 278 278 277 277 276 274 274 273 272 271 272 274 276 276 275 276 276 275 273 271 268 266 267 268 269 270 270 269 268 270 273 270 267 267 269 270 271 272 272 273 276 278 279 279 281 281 281 284 285 286 288 286 283 283 282 281 281 281 281 281 281 282 281 280 280 280 279 279 279 278 277 277 278
270 271 272 273 274 276 279 280 282 284 285 283 282 280 278 278 278 278 278 277 276 274 273 274 273 272 274 275 275 275 276 276 276 274 270 267 265 266 268 266 267 270 269 267 271 274 270 268 269 270 271 274 277 276 274 275 276 277 278 280 281 283 286 286 285 286 286 283 285 285 283 282 282 281 281 281 281 281 279 278 278 278 279 278 277 277 277 278
269 270 271 272 273 275 277 279 279 281 281 280 281 280 278 278 278 279 279 277 277 275 274 274 273 273 274 274 274 272 272 274 275 273 268 265 264 265 266 265 266 269 267 265 267 269 270 271 271 270 272 275 276 275 274 277 277 275 277 279 280 283 286 286 286 288 286 283 286 288 285 283 284 283 282 280 280 280 280 279 278 278 279 278 277 276 277 277
268 269 270 271 273 274 276 277 276 278 278 277 279 279 278 278 278 280 281 278 278 277 275 274 273 274 274 275 274 271 270 272 273 273 268 262 264 266 266 265 266 268 266 264 264 266 269 272 271 270 271 271 272 272 272 275 276 274 274 275 279 282 282 283 289 293 289 284 285 289 288 284 283 282 283 283 281 282 282 281 280 279 278 278 277 276 276 275
267 268 269 271 272 273 275 274 273 276 276 275 278 279 278 278 278 281 282 280 280 280 279 276 274 274 275 277 276 271 271 273 272 273 268 261 262 267 268 266 266 267 266 265 267 269 270 271 272 272 271 269 269 271 269 270 275 276 272 271 275 280 281 283 289 293 289 286 287 290 289 287 284 282 285 289 287 286 285 283 282 280 279 278 277 275 274 274
267 267 268 269 270 273 274 272 272 275 275 275 278 279 277 277 278 281 283 282 281 280 280 277 275 275 276 278 275 271 275 277 274 272 270 266 264 267 270 269 269 270 267 267 270 271 272 271 269 270 270 269 269 271 270 268 273 276 273 272 274 277 280 282 285 287 285 285 288 287 285 287 287 285 287 291 289 286 285 285 283 281 279 278 276 275 275 276
267 267 267 268 270 271 272 271 273 275 274 275 278 277 276 276 278 280 283 283 280 278 277 276 277 278 277 277 273 270 274 277 277 274 272 271 269 269 270 271 272 271 269 270 272 272 273 273 270 270 270 270 270 272 271 267 269 274 276 274 273 276 278 278 280 281 282 286 287 282 280 284 286 287 288 288 286 285 286 285 284 282 278 277 275 276 278 279
267 266 266 267 268 269 270 271 273 273 273 274 277 276 274 274 275 279 282 279 277 277 277 276 279 281 280 276 270 270 274 276 278 277 274 272 271 272 272 271 271 271 270 268 269 273 275 273 272 271 270 271 272 273 272 267 269 275 277 275 274 275 276 277 277 278 284 288 284 280 280 283 286 289 291 288 285 286 286 284 285 284 279 276 276 276 279 282
266 266 266 266 267 268 270 271 272 271 271 273 275 274 272 272 274 277 276 272 274 278 278 279 279 281 282 277 272 273 275 277 276 276 277 275 273 275 275 273 270 271 272 268 269 275 277 275 273 270 271 273 274 275 271 266 270 275 276 277 279 278 279 279 278 279 283 283 278 276 279 285 288 290 291 291 289 288 286 286 289 288 282 279 280 280 281 284
265 266 266 266 267 267 269 270 269 270 271 272 274 274 271 271 272 273 268 267 273 278 278 279 279 279 280 277 276 276 274 275 276 275 278 277 276 277 276 275 273 272 273 273 273 275 276 277 276 273 275 276 276 276 273 269 272 276 276 278 281 280 280 280 278 279 280 277 273 271 274 281 286 287 286 286 289 291 292 292 293 290 283 280 282 283 283 285
265 265 265 265 266 266 267 268 268 267 269 271 273 273 271 270 270 264 263 268 274 275 276 277 277 278 278 274 275 277 275 276 275 275 277 277 277 277 275 274 275 276 276 275 276 277 276 275 276 277 277 278 278 277 278 277 275 275 274 276 279 280 280 280 278 276 273 273 273 272 273 272 272 278 283 283 286 291 291 291 290 287 283 281 282 283 285 285
265 265 265 265 265 264 265 267 266 265 267 270 272 272 269 269 266 259 263 273 275 271 271 273 274 275 275 275 276 276 276 277 277 275 276 276 275 274 272 271 272 276 276 274 276 279 276 272 274 279 277 275 276 276 278 279 275 272 272 271 274 278 280 278 276 273 270 272 274 273 274 269 267 272 278 281 285 287 286 286 285 284 283 284 284 284 286 285
265 265 265 264 264 264 263 264 265 264 266 269 270 269 266 264 263 261 263 267 268 268 270 271 272 271 271 275 276 276 277 277 277 277 277 276 275 274 274 273 272 274 275 274 277 279 278 276 275 276 277 274 272 273 275 276 274 271 269 267 266 271 274 273 274 276 274 274 275 272 269 272 274 276 276 275 279 282 284 285 282 281 282 285 285 285 286 286
266 265 265 265 264 264 263 262 263 263 265 266 266 265 261 258 263 267 266 264 267 270 271 271 273 272 271 272 273 274 277 277 276 276 277 277 276 276 276 274 273 275 276 275 276 277 278 278 275 272 275 272 269 270 271 275 274 271 270 267 262 262 266 270 272 274 274 277 277 271 266 270 275 278 276 273 276 281 285 284 282 281 283 284 284 284 284 285
267 266 265 265 264 264 263 261 261 262 263 263 264 261 257 258 264 267 267 267 269 272 272 272 271 271 271 271 273 274 275 276 276 276 276 276 275 275 275 274 272 274 276 274 275 276 275 276 276 275 275 272 270 271 273 275 275 271 270 266 263 263 265 268 268 268 273 278 275 269 268 270 273 276 277 279 282 282 283 285 286 286 286 286 286 284 283 284
268 266 265 264 264 262 260 260 260 261 261 261 262 260 258 261 263 263 265 268 270 271 272 272 270 270 272 272 274 275 274 273 274 274 275 275 274 274 274 275 273 271 272 273 275 275 274 275 277 277 277 274 273 274 273 272 272 271 268 265 268 270 266 266 269 269 270 271 269 268 270 273 276 277 278 281 282 281 284 288 289 288 288 289 288 285 284 283
268 267 265 264 263 261 258 257 258 259 259 259 260 260 261 262 262 263 266 268 268 270 271 270 269 269 270 272 272 272 273 273 272 273 275 275 275 274 273 275 274 269 269 272 275 275 274 276 276 276 278 277 276 276 275 272 270 270 268 268 272 273 268 266 270 270 267 267 267 267 269 272 274 274 277 280 280 281 285 287 289 290 289 289 289 287 284 283
268 267 266 265 263 261 258 256 256 257 259 260 260 260 262 263 263 264 265 266 267 268 268 268 269 269 268 269 270 270 271 272 271 272 274 274 273 272 272 275 275 272 271 274 277 277 277 278 277 276 279 280 278 276 275 275 272 269 270 271 270 269 268 266 266 267 265 265 267 265 265 268 268 269 274 276 275 278 282 283 287 291 292 292 291 289 287 285
268 268 267 266 263 260 258 256 256 256 259 260 261 261 263 264 264 264 264 266 267 267 267 267 268 269 268 267 268 270 270 270 271 272 273 273 272 272 271 272 273 274 274 275 277 278 277 277 277 277 278 279 278 275 274 275 275 273 272 270 267 266 267 266 264 265 264 265 267 265 263 265 265 267 270 270 270 273 277 280 282 285 289 293 293 291 290 289
267 267 267 266 263 259 256 255 256 257 259 261 261 263 264 265 265 264 263 265 266 266 267 267 267 267 268 267 268 270 270 269 269 270 271 270 271 273 272 271 273 274 275 276 277 277 277 276 277 278 277 275 274 274 273 274 274 273 270 268 267 266 267 267 265 263 264 265 267 267 265 263 264 265 266 267 267 270 276 279 278 279 283 287 288 287 287 287
265 266 266 265 262 257 255 256 258 259 261 262 262 263 265 265 265 265 264 263 264 266 266 266 266 266 268 268 269 270 270 269 268 268 269 269 268 270 270 269 270 273 276 277 275 275 276 276 277 279 277 273 273 273 271 270 270 270 268 267 266 265 266 268 267 264 264 265 266 268 268 265 264 265 265 267 268 271 275 276 276 277 278 280 282 282 281 282
264 265 267 264 258 254 255 258 260 261 261 262 263 264 264 265 265 264 264 263 264 266 267 266 266 267 268 269 269 269 269 269 268 267 268 268 265 267 269 267 267 271 274 275 273 272 272 273 274 276 274 273 274 273 269 267 266 266 266 266 268 267 265 265 268 267 267 268 270 271 269 267 268 268 267 268 270 273 275 276 276 277 278 279 281 281 280 279
263 265 266 263 256 254 257 260 261 261 262 263 264 264 264 265 264 264 264 265 265 267 268 268 268 267 268 269 269 269 269 269 268 267 268 269 268 267 268 268 269 272 273 272 273 272 270 270 271 273 274 273 272 272 270 266 265 266 266 265 267 269 267 266 268 269 268 268 271 272 270 267 269 270 269 270 271 273 275 275 275 277 280 281 280 280 279 278
264 265 265 262 256 255 258 261 262 262 263 264 264 264 264 264 264 264 265 265 266 267 268 268 268 268 269 269 269 269 269 269 269 269 269 270 271 269 267 268 269 271 272 271 273 273 272 271 270 272 275 274 272 271 270 267 266 266 267 267 266 267 267 267 268 268 267 265 265 268 270 270 270 271 271 272 273 274 275 273 273 277 279 278 278 278 278 279
266 265 264 261 257 256 259 261 263 264 264 264 264 264 264 265 264 264 265 265 265 267 269 270 270 270 270 270 270 270 268 268 270 272 271 272 273 272 269 268 269 271 272 271 272 273 273 271 268 268 270 270 270 270 270 270 269 267 267 267 266 266 265 266 267 266 266 266 265 265 269 272 272 271 271 271 272 274 274 272 273 276 277 276 277 276 277 278
266 265 265 263 259 258 260 261 262 263 264 264 265 264 263 265 267 266 265 266 266 266 268 270 270 272 271 270 270 270 269 268 269 271 272 272 273 273 272 271 271 271 272 272 272 272 273 271 267 265 265 266 268 270 271 271 269 267 267 266 266 267 266 267 268 267 269 271 268 266 270 273 272 270 270 270 270 272 273 273 274 276 276 276 276 275 275 277
265 265 264 263 261 260 261 262 262 263 263 263 264 265 264 265 267 267 265 266 266 266 267 269 268 268 269 269 269 270 269 269 268 269 270 271 272 273 274 274 273 272 272 273 271 270 271 271 269 267 266 266 268 270 270 269 267 266 267 267 267 268 267 267 267 268 271 273 270 269 271 272 271 271 271 270 271 272 272 273 274 275 276 276 275 275 276 277
264 265 264 263 262 262 262 263 262 263 263 262 263 265 265 265 266 267 267 268 267 266 267 269 268 267 268 269 269 269 270 270 269 270 270 272 274 275 275 275 274 274 275 273 272 271 270 269 269 268 268 267 268 269 269 268 267 266 266 267 268 268 268 267 268 269 270 269 270 272 272 271 272 272 271 271 272 272 273 273 274 275 275 276 275 275 277 277
264 265 265 264 263 264 265 265 264 264 263 262 263 264 265 266 265 266 268 269 269 267 267 269 270 270 271 271 269 269 270 270 270 271 271 272 274 274 275 275 274 276 277 275 273 273 271 270 270 270 269 268 268 268 268 267 267 266 266 267 267 268 268 268 268 269 269 269 271 273 272 271 273 273 272 273 273 273 274 274 274 274 274 275 276 277 278 279
265 265 265 265 264 264 265 264 264 264 264 263 263 264 264 265 265 266 267 267 268 269 268 269 271 271 271 270 269 269 269 269 269 270 271 273 274 274 274 275 275 276 277 275 273 272 272 273 273 273 272 270 269 268 268 267 266 267 267 267 268 268 268 268 269 270 270 270 271 272 272 272 274 274 275 275 274 274 274 274 274 274 274 276 278 280 280 281
265 265 266 266 265 264 264 263 263 263 263 263 263 264 264 265 266 267 268 266 266 268 269 269 270 270 269 269 270 269 270 270 269 269 271 273 273 274 274 275 276 277 276 274 273 273 274 275 276 275 273 270 269 269 269 268 268 266 266 267 268 267 268 268 269 269 270 271 271 272 272 275 277 277 276 276 275 274 273 274 275 275 275 277 278 279 279 279
266 266 266 265 265 265 265 265 263 262 263 264 264 265 265 266 267 268 268 267 265 266 269 270 271 271 270 269 270 271 271 272 271 272 272 272 272 272 272 272 272 273 274 275 274 273 273 274 275 274 273 272 272 272 272 272 270 266 266 266 267 267 267 268 269 269 271 272 273 273 274 278 281 281 279 279 278 277 276 275 275 275 277 278 277 276 277 278